Location: Evergreen Manor
(41.4083°N, 81.4939°W)
Time: 10:36:22
(UTC+00:00)

Cosmos 2266 Rocket - Pass Details

Date: 11 December 2019
Orbit: 933 x 1009 km, 82.9° (Epoch: 22 January)

Event Time Altitude Azimuth Distance (km) Brightness Sun altitude
Rises 00:33:30 0° 184° (S) 3,721 7.2 -28.6°
Reaches altitude 10° 00:36:01 10° 183° (S) 2,777 6.5 -29.1°
Enters shadow 00:41:45 73° 171° (S) 1,054 4.0 -30.1°
